GFSSW_prec_cloud_195.txt.gz
Cloud_Cover
100 100 100 94 100 86 100 100 100 100 50 100 98 60 14 94 84 34 86 3 24 96 100 100 42 88 93 98 61 6 5 4 0 0 0 0 0 0 0 0 0 0 0 0 0
100 100 100 100 99 100 96 100 100 100 100 100 40 10 61 32 53 74 5 5 9 10 24 100 100 78 100 96 14 5 5 0 3 0 0 0 0 0 0 0 0 0 0 0 0
100 100 100 100 100 100 100 100 100 100 100 100 100 41 5 83 30 2 73 13 66 53 20 57 100 100 100 38 17 5 1 3 3 0 0 0 0 0 0 0 0 0 0 0 0
100 100 100 100 100 100 100 100 100 100 100 100 100 100 76 100 57 2 5 84 81 91 74 23 12 82 84 44 11 24 5 1 0 0 0 0 0 0 0 0 0 0 0 0 0
100 100 100 100 100 100 100 100 100 100 100 100 100 100 100 98 100 52 14 34 61 97 95 34 66 17 5 5 5 3 0 0 0 0 0 0 0 0 0 0 0 0 0 0 0
100 100 100 100 100 100 100 100 100 100 100 100 100 100 100 100 98 100 76 15 75 75 100 100 100 75 67 13 6 5 5 28 5 0 0 0 0 0 0 0 0 0 0 0 0
100 100 94 100 100 100 100 100 100 100 100 100 100 100 100 100 100 100 90 26 100 100 100 100 100 100 100 81 77 26 48 9 18 0 3 0 0 0 0 0 0 0 0 0 0
3 10 79 46 100 100 100 100 100 100 100 100 100 100 100 100 100 100 37 99 98 100 100 100 100 100 100 100 93 5 81 59 5 5 4 0 0 0 0 0 0 0 0 0 0
100 30 17 14 65 66 100 100 100 100 95 100 98 100 100 100 100 100 100 100 100 100 100 100 100 100 91 86 72 36 66 25 5 5 2 0 0 0 0 0 0 0 0 0 0
84 98 52 60 39 96 30 12 97 100 100 21 100 100 100 100 100 100 100 82 100 100 100 100 100 100 100 100 100 70 5 10 5 5 0 0 0 0 0 0 0 0 0 0 0
100 94 5 5 6 8 100 100 50 4 52 62 48 100 100 100 100 100 100 94 24 100 100 100 100 100 100 100 60 5 60 5 5 3 0 0 0 0 0 0 0 0 0 0 0
55 79 65 1 2 3 89 100 94 42 17 6 100 100 100 100 100 100 100 100 100 96 100 100 100 100 100 100 100 82 13 5 4 0 0 0 0 0 0 0 0 0 0 0 0
4 20 90 88 2 14 54 75 34 26 100 6 95 100 100 100 100 100 99 98 100 52 84 100 100 100 100 80 29 56 42 5 5 0 0 0 0 0 0 0 0 0 0 0 0
17 5 10 85 44 0 17 0 54 10 99 2 4 100 100 100 100 100 100 40 78 99 68 89 100 100 100 60 5 7 34 5 5 0 0 0 0 0 0 0 0 0 0 0 0
40 100 81 97 86 9 18 0 7 99 99 0 0 4 100 100 100 100 100 84 71 100 94 68 100 100 100 100 6 5 5 5 4 0 0 0 0 0 0 0 0 0 0 0 0
95 100 100 100 94 13 12 59 100 100 60 0 0 0 6 97 99 100 100 100 65 100 66 55 11 100 100 100 82 5 5 5 0 0 0 0 0 0 0 0 0 0 0 0 0
73 93 100 100 98 100 32 100 100 100 0 0 0 0 0 1 2 73 100 100 95 100 28 96 10 75 100 100 40 97 5 5 5 2 3 0 0 0 0 0 0 0 0 0 0
100 29 47 100 100 100 100 100 98 52 40 0 1 0 1 5 21 57 82 45 98 84 100 100 100 98 100 100 100 100 71 5 5 11 3 0 0 0 0 0 0 0 0 0 0
100 100 100 100 100 97 100 100 87 15 4 2 3 5 40 93 80 100 71 25 79 77 98 98 54 96 87 87 100 54 99 9 5 0 1 0 0 0 0 0 0 0 0 0 0
100 99 100 100 100 100 100 100 60 0 0 9 33 4 5 94 84 100 100 30 27 100 100 100 100 99 96 7 6 5 100 16 20 0 0 2 1 0 0 0 0 0 0 0 0
100 97 100 100 100 100 100 94 88 5 5 99 100 88 5 100 94 100 100 88 98 100 100 100 100 98 23 5 7 41 88 99 11 5 2 1 0 0 0 0 0 0 0 0 0
100 98 100 100 100 100 100 100 15 68 100 100 100 100 97 100 100 100 100 100 100 100 100 100 100 100 5 5 5 44 33 93 5 0 32 12 0 0 0 0 0 0 0 0 0
95 89 100 92 100 97 97 77 84 91 100 100 100 100 100 100 100 100 100 100 100 100 84 100 100 100 93 5 5 5 5 87 15 5 5 0 4 0 0 0 0 0 0 0 0
100 100 100 100 100 100 100 62 100 83 93 99 100 100 100 100 100 100 100 100 100 100 100 100 100 100 91 72 77 100 96 100 58 6 5 2 5 0 0 0 5 5 5 5 6
100 100 99 100 100 100 62 6 53 100 100 100 100 100 100 100 100 100 100 100 100 100 100 100 100 100 100 94 23 89 7 5 2 5 0 0 0 0 0 0 0 5 5 6 56
100 100 100 100 100 100 99 91 29 99 100 100 100 100 100 100 100 100 100 100 100 100 100 100 100 100 100 100 48 67 9 5 5 5 6 5 5 0 0 0 3 3 5 5 24
100 100 100 100 100 100 100 100 100 100 100 92 100 100 100 100 100 100 100 100 100 100 100 100 100 100 100 100 100 58 60 42 47 20 5 4 4 0 0 0 0 2 5 4 5

GFSSW_prec_cloud_198.txt.gz
Cloud_Cover
100 100 48 90 100 100 100 100 100 100 100 87 100 88 54 100 99 69 40 8 100 100 100 100 100 92 82 30 5 5 5 22 14 5 34 5 2 0 0 0 0 0 0 0 0
100 100 100 53 100 100 100 100 100 100 100 100 100 100 95 73 82 35 0 0 8 99 100 100 100 100 100 100 27 25 49 25 5 5 5 5 0 0 0 0 0 0 0 0 0
100 100 100 99 100 100 100 100 100 100 100 100 100 100 100 100 99 5 1 0 3 25 16 84 89 100 100 100 100 99 100 55 5 5 5 5 0 0 0 0 0 0 0 0 0
100 100 100 100 100 100 100 100 100 100 100 100 100 100 100 100 100 100 100 2 7 4 5 5 82 100 100 100 100 100 100 14 42 6 5 3 0 0 0 0 0 0 0 0 0
38 35 79 98 33 80 100 100 100 100 100 100 100 100 100 100 100 100 100 98 5 2 5 76 100 100 100 100 100 100 100 60 86 55 5 5 0 0 0 0 0 0 0 0 0
35 20 15 58 100 100 97 100 100 100 100 100 100 100 100 100 100 100 100 100 98 17 5 62 99 93 66 99 100 100 100 100 100 67 9 5 5 0 0 0 0 0 0 0 0
58 0 29 19 40 90 100 100 100 100 100 100 100 100 100 100 100 100 100 100 100 100 18 10 40 86 100 55 70 100 100 100 100 57 55 14 4 0 0 0 0 0 0 0 0
3 0 98 80 13 10 31 100 100 100 100 100 100 100 100 100 100 100 100 100 100 100 57 5 53 74 81 79 100 44 56 90 13 5 5 4 1 0 0 0 0 0 0 0 0
26 1 2 100 90 44 17 62 99 100 100 100 100 100 100 100 100 100 100 100 100 100 100 5 75 74 100 90 97 76 100 100 37 25 69 5 4 0 0 0 0 0 0 0 0
17 82 72 5 66 43 14 14 59 100 100 100 100 100 100 100 100 100 100 100 100 100 100 62 65 98 100 100 100 100 100 100 100 18 18 50 13 5 5 0 0 0 0 0 0
5 69 100 100 78 0 0 4 46 100 100 100 100 100 100 100 100 100 100 100 100 100 100 100 12 100 100 100 100 100 100 100 100 90 52 12 5 5 5 3 0 0 0 0 0
78 42 57 13 57 87 10 82 6 100 21 97 100 100 100 100 100 100 100 100 100 100 100 100 26 100 100 100 100 100 100 100 100 83 5 5 5 5 5 0 0 0 0 0 0
55 31 46 67 88 100 91 4 4 25 100 19 12 85 100 100 100 100 100 100 100 100 100 100 100 100 100 100 100 100 100 100 100 78 5 5 6 14 4 0 0 0 0 0 0
98 16 100 100 100 62 97 2 0 38 100 63 0 1 66 98 100 100 100 100 100 100 100 100 100 93 100 62 100 100 100 100 100 99 6 5 80 5 5 2 0 0 0 0 0
5 100 99 94 67 100 46 47 11 44 100 2 0 0 3 96 99 100 100 100 100 100 100 100 100 100 100 100 100 100 100 100 100 42 5 5 5 5 5 2 0 0 0 0 0
100 100 91 100 100 98 100 100 100 96 89 100 25 0 0 5 87 100 100 100 100 100 100 100 100 100 100 56 99 100 100 100 100 34 0 5 5 63 5 5 1 0 0 0 0
100 91 62 100 99 100 100 100 100 100 0 0 0 0 0 1 19 86 100 100 100 100 100 100 100 100 100 80 5 98 100 90 80 5 5 9 5 98 4 4 0 0 0 0 0
81 94 100 100 100 100 100 100 100 94 20 2 4 3 1 2 8 4 93 100 100 100 100 100 100 100 100 100 99 80 100 100 97 35 96 12 4 5 5 0 0 0 0 0 0
80 100 100 100 100 100 100 100 100 8 65 100 100 38 100 100 7 5 10 79 100 100 100 100 100 100 100 100 100 100 100 100 100 5 6 16 5 5 5 5 0 0 0 0 0
100 100 100 100 100 100 100 100 89 100 100 63 17 60 100 100 66 67 52 5 82 100 100 100 100 100 100 100 100 99 100 83 88 6 5 6 90 6 5 0 0 0 0 0 0
100 99 100 100 100 100 100 74 100 100 64 100 100 100 100 100 100 100 58 4 100 100 100 100 100 100 100 85 83 100 87 82 53 48 5 6 87 50 5 0 0 0 0 0 0
99 95 100 100 100 100 99 100 100 100 100 100 99 100 100 100 88 100 25 57 100 100 100 100 100 100 100 98 59 97 100 88 70 37 40 20 100 53 5 2 0 0 0 0 0
100 99 37 69 100 99 100 100 100 100 100 100 100 100 95 100 100 90 82 100 100 100 97 100 100 96 100 99 70 22 98 8 5 17 100 66 55 66 13 5 1 0 0 0 0
98 99 94 100 100 100 98 84 100 56 68 94 100 100 100 100 100 100 100 100 100 100 100 100 100 59 88 74 88 44 100 64 5 5 56 97 100 100 78 5 4 0 0 0 0
86 100 100 85 100 99 87 100 100 100 95 91 100 100 100 100 100 100 100 100 100 100 100 100 94 47 96 100 100 100 100 100 9 10 15 100 100 95 56 5 4 5 5 0 0
94 100 100 100 100 99 79 100 60 6 8 80 100 100 100 100 100 100 100 100 100 100 100 100 99 100 100 100 100 100 100 100 76 5 5 6 6 6 36 100 12 5 5 1 0
99 100 100 92 100 100 100 100 100 98 100 100 100 100 100 100 100 100 100 100 100 100 100 100 98 100 100 100 100 100 100 100 100 60 88 38 100 97 84 66 11 5 4 0 0

GFSSW_prec_cloud_201.txt.gz
Cloud_Cover
100 100 100 100 100 100 99 100 100 100 100 100 100 100 75 88 3 12 37 6 100 100 100 100 71 81 89 93 86 67 5 86 68 5 5 5 5 3 5 2 0 0 0 0 0
100 100 100 100 100 100 100 100 100 100 100 100 100 100 100 92 27 28 0 0 0 83 100 100 100 94 100 100 74 16 38 94 33 5 5 5 5 5 5 5 4 4 0 0 0
100 100 100 100 93 100 100 100 100 100 100 100 100 100 100 100 64 16 5 1 1 99 1 97 100 100 100 96 100 98 97 100 92 5 6 5 6 5 5 5 5 0 0 0 0
100 100 100 100 77 97 99 100 100 100 100 100 100 100 100 100 100 81 26 43 70 35 5 0 8 79 100 100 100 100 100 100 88 7 17 44 5 5 6 5 5 1 0 0 0
82 42 30 70 100 86 36 100 100 100 100 100 100 100 100 100 100 100 94 93 96 5 5 0 0 0 5 82 100 100 100 100 100 98 99 100 28 5 5 36 18 3 0 0 0
98 91 1 0 5 11 14 100 100 71 100 100 100 100 100 100 100 100 100 100 100 98 66 57 0 1 0 18 51 100 100 100 100 100 100 100 100 34 68 33 5 5 0 0 0
73 8 0 0 0 0 0 10 100 97 100 100 100 100 100 100 100 100 100 100 100 100 100 96 46 0 5 5 91 89 87 100 100 100 100 100 100 100 18 70 100 8 4 0 0
5 15 76 2 0 0 2 8 100 100 100 100 100 99 100 100 100 100 100 100 100 100 100 98 100 37 9 6 78 100 100 100 100 100 100 100 100 100 98 67 59 6 5 0 0
5 3 0 21 5 5 5 10 16 100 100 100 100 100 100 100 100 100 100 100 100 100 100 100 97 98 77 43 50 99 100 100 100 100 100 100 100 100 100 82 25 5 5 0 0
5 5 5 26 11 12 17 5 95 89 100 100 100 100 100 100 100 100 100 100 100 100 98 100 100 100 100 98 80 100 100 100 100 99 99 100 100 100 100 55 5 25 1 0 0
98 67 55 65 89 45 96 40 5 6 18 100 100 100 100 100 100 100 100 100 100 100 100 100 100 100 100 100 100 100 100 100 100 9 24 100 100 89 23 6 16 5 5 0 0
34 9 56 100 100 100 88 100 93 39 50 4 51 100 100 100 100 100 100 100 100 100 100 100 100 100 100 100 100 94 62 98 48 14 46 10 86 5 61 27 13 5 4 1 0
33 29 5 42 77 90 100 82 100 74 85 29 23 19 98 100 100 100 100 100 100 100 100 100 100 100 100 100 76 100 52 100 100 96 79 27 100 50 75 18 45 12 5 4 0
40 65 62 5 8 8 74 100 87 100 100 5 2 2 4 100 100 100 100 100 100 100 100 62 100 100 100 100 94 95 96 100 100 100 100 86 96 66 100 95 76 38 5 5 0
96 91 47 96 100 100 100 66 100 100 100 1 0 0 0 4 98 100 100 100 100 100 100 100 100 100 100 100 100 100 100 100 100 97 94 72 48 100 100 100 32 49 45 5 5
97 66 99 100 100 100 100 99 100 100 100 4 4 0 0 0 28 100 100 100 100 100 100 100 100 100 100 100 100 100 84 100 100 93 6 100 17 100 100 100 18 7 64 5 5
42 99 95 100 100 100 100 100 100 100 97 2 3 6 16 24 80 91 100 100 100 100 100 100 100 88 100 100 100 100 93 5 82 100 62 100 36 100 100 77 93 28 5 5 5
58 100 100 100 100 100 100 100 100 63 100 96 100 97 90 22 84 8 91 100 100 100 100 100 100 100 100 100 100 100 100 48 26 100 100 100 25 100 100 82 7 15 53 5 5
12 100 100 100 100 92 100 100 100 100 100 100 100 100 100 99 13 14 5 72 100 100 100 100 100 100 100 100 100 100 100 80 72 93 61 100 100 100 100 87 5 5 5 8 5
91 100 100 100 100 75 100 100 100 100 100 100 100 100 100 100 100 80 23 5 58 100 100 100 100 100 100 100 100 100 100 100 37 7 25 97 100 100 100 98 6 5 5 14 5
100 91 81 36 100 100 100 100 94 100 100 100 95 100 100 100 100 100 98 3 5 38 100 100 100 100 100 100 100 100 95 100 7 3 3 41 98 100 100 99 5 5 21 10 5
88 90 73 89 100 100 100 100 100 100 100 88 100 100 100 100 100 100 100 99 33 5 51 100 100 98 100 100 100 100 100 99 100 16 31 24 100 100 100 100 30 5 5 5 5
100 98 65 78 64 100 100 100 100 100 100 87 100 100 100 100 100 100 100 100 100 50 99 100 100 100 100 98 99 100 100 100 100 12 8 5 68 100 100 100 80 5 5 5 3
94 90 61 100 97 100 100 100 28 100 100 74 100 100 100 100 100 95 94 100 100 100 76 100 99 99 98 70 97 100 83 100 16 4 6 50 100 98 100 100 100 52 5 5 5
94 72 93 96 100 100 100 85 70 100 98 100 100 100 100 100 100 100 100 100 76 100 100 100 92 23 95 100 100 100 100 100 100 88 5 96 100 100 100 100 100 100 59 5 5
99 94 100 100 100 100 100 70 100 100 100 100 100 100 100 100 100 100 100 100 100 100 100 100 61 45 100 93 100 100 100 100 71 30 9 48 89 100 100 100 100 100 100 8 2
95 100 100 78 92 100 100 100 100 99 100 100 100 100 100 99 100 100 100 100 100 100 100 100 100 78 100 100 100 96 44 49 75 82 66 24 100 100 100 100 100 100 100 47 23

GFSSW_prec_cloud_207.txt.gz
Cloud_Cover
2 44 78 0 3 4 33 22 90 86 75 100 100 100 100 100 93 71 5 0 0 5 100 100 100 100 100 100 100 100 100 100 100 100 100 100 100 30 11 0 0 0 0 1 5
57 5 3 0 5 2 24 19 9 23 80 79 100 100 100 100 100 100 69 5 1 0 50 100 100 100 100 100 100 100 100 100 100 100 100 100 100 100 100 57 8 5 4 0 0
50 84 5 5 7 5 0 0 23 7 72 12 100 100 100 100 100 100 100 72 5 89 47 59 100 100 100 100 100 100 100 100 100 100 100 100 100 100 100 100 78 7 1 0 0
12 27 62 100 92 35 7 4 3 6 24 28 67 100 100 100 100 100 100 100 99 68 80 100 100 100 100 100 100 100 100 100 100 100 100 100 100 100 72 99 91 27 5 2 5
1 30 2 18 72 100 82 13 5 5 29 32 75 60 100 100 100 100 100 100 100 78 92 100 99 38 19 98 100 100 100 100 100 100 100 100 77 60 25 22 66 8 9 5 1
24 84 33 11 4 8 96 100 100 84 7 6 44 97 66 100 100 100 100 100 100 100 100 65 85 19 36 34 100 100 100 100 100 100 100 100 67 87 73 8 63 11 5 5 5
14 60 10 7 5 5 5 60 100 100 100 100 78 91 100 46 100 95 100 100 100 100 100 100 98 100 96 57 27 97 100 100 98 100 100 100 85 87 100 100 94 5 5 5 6
87 100 20 84 0 5 44 5 3 54 91 100 100 84 100 14 6 100 89 100 100 100 100 100 100 94 100 99 11 11 28 96 100 100 100 100 95 100 100 100 100 78 7 5 5
88 89 2 5 0 5 9 4 5 5 3 7 52 70 26 100 6 39 100 100 100 100 85 100 100 100 99 100 50 30 1 0 37 100 100 100 99 100 100 100 100 98 39 5 5
100 25 5 5 0 0 2 1 3 5 5 5 25 49 6 86 100 47 89 100 100 100 100 85 100 100 100 62 80 34 9 4 4 2 7 98 100 100 100 100 100 100 49 5 5
69 22 5 0 0 4 5 6 17 91 85 26 25 5 5 71 100 100 5 90 100 100 100 100 100 99 100 100 100 100 78 8 5 38 0 0 36 100 100 100 100 100 96 98 100
4 0 0 3 0 4 7 59 94 92 57 100 97 92 22 100 100 100 66 77 100 100 100 100 96 95 100 100 100 100 100 46 71 6 3 2 4 13 37 100 100 100 100 100 100
0 3 2 3 5 5 24 62 98 96 100 29 17 39 73 80 100 100 100 86 84 100 100 99 100 100 100 100 100 100 100 100 71 3 0 0 24 100 86 100 100 100 100 100 100
5 3 1 4 17 59 100 93 100 100 100 45 6 16 78 92 82 100 100 100 100 100 100 100 100 100 100 100 100 100 100 100 100 93 5 0 13 44 90 83 100 100 100 100 100
0 3 5 0 42 92 96 100 100 100 100 65 95 5 2 75 0 87 100 100 100 100 100 100 100 100 100 100 100 100 100 100 100 100 5 5 0 24 98 100 100 100 100 100 99
1 0 0 28 95 90 100 100 99 100 89 46 93 46 93 99 95 77 98 100 100 100 100 100 100 100 100 100 100 100 100 100 100 100 42 23 0 61 41 100 100 100 100 100 100
0 0 0 8 36 67 70 99 100 92 90 100 94 100 57 96 100 100 47 100 100 100 100 100 100 98 100 100 100 100 100 100 100 100 33 64 3 41 8 100 100 100 100 100 99
0 0 4 29 87 81 100 100 100 99 100 100 100 100 100 100 100 100 100 100 100 100 100 100 100 100 100 100 99 100 100 100 78 98 85 90 5 52 99 100 100 100 100 100 100
0 19 100 96 70 22 100 100 100 100 100 100 100 100 100 100 100 100 100 100 100 100 100 100 100 100 100 100 100 100 100 100 54 5 100 60 54 99 100 100 100 100 100 100 100
5 90 99 3 53 98 100 99 100 100 100 100 100 97 100 100 100 100 100 100 100 100 100 100 100 100 100 100 100 96 100 100 59 21 37 100 100 100 100 99 8 100 100 100 100
34 72 64 32 89 100 97 98 47 100 100 100 100 100 100 100 100 100 100 100 100 100 100 100 100 100 100 100 100 100 100 90 100 10 9 73 100 100 100 100 39 97 100 100 100
44 81 78 5 100 98 78 95 46 100 100 100 100 100 100 100 100 100 100 100 100 100 68 100 100 100 100 100 100 100 62 100 99 100 28 26 97 100 100 100 100 47 100 100 100
95 100 82 18 100 100 90 81 100 100 100 100 100 100 100 100 100 100 100 100 100 72 90 100 99 100 100 98 54 100 83 85 48 64 93 5 58 100 100 100 100 78 100 100 50
100 94 56 59 81 58 96 94 98 100 82 88 100 100 100 100 100 100 100 100 100 100 99 100 82 100 100 100 90 100 100 98 58 5 75 29 11 100 100 100 100 100 100 100 92
86 98 86 89 98 100 100 81 99 100 73 100 100 100 100 94 100 100 100 100 100 100 100 100 74 77 100 100 100 100 100 100 100 100 7 91 22 72 100 100 100 76 99 53 100
100 100 82 94 100 100 98 100 100 48 84 60 100 100 100 100 100 100 100 100 100 97 100 100 100 100 100 99 97 100 18 100 100 40 5 8 8 100 100 100 100 100 28 100 100
96 92 91 36 100 100 99 100 79 100 93 92 100 100 100 100 100 100 100 100 100 100 100 100 79 96 42 64 95 91 57 57 100 100 5 5 53 100 82 100 100 100 98 92 97

GFSSW_prec_cloud_210.txt.gz
Cloud_Cover
54 47 15 75 56 15 5 64 77 5 10 10 7 100 100 100 100 100 91 4 4 3 100 100 100 100 100 100 100 100 89 100 100 100 100 71 37 19 5 5 0 0 0 3 0
2 66 84 100 82 2 0 4 34 13 4 58 83 65 100 100 100 100 100 82 5 5 58 100 100 100 100 100 100 100 100 100 100 100 100 100 100 93 86 55 5 0 0 0 0
5 15 50 94 99 27 100 29 27 93 5 14 44 92 64 100 100 100 100 100 91 5 61 89 100 100 100 100 100 100 98 100 100 100 100 100 100 100 100 100 98 7 2 0 0
16 73 97 38 19 1 0 4 18 92 88 0 36 39 100 20 81 100 100 100 100 99 20 88 100 100 100 100 100 100 100 100 100 100 100 100 100 100 100 100 100 100 100 43 3
29 100 62 100 33 2 1 0 0 5 89 99 9 12 75 58 53 96 100 100 100 100 100 95 100 100 100 100 100 100 100 100 100 100 100 100 100 100 100 100 100 100 100 100 100
98 100 96 100 5 11 7 0 2 5 0 94 100 28 97 100 21 5 100 100 100 100 100 100 98 100 100 100 100 100 100 100 100 100 100 100 100 93 100 100 100 100 100 100 100
100 81 100 1 0 5 3 0 3 5 3 5 73 99 63 43 12 100 32 100 100 100 100 100 100 100 100 94 90 100 100 100 100 100 100 100 100 99 100 94 99 100 100 100 99
100 99 5 5 0 0 0 2 0 5 2 5 5 38 100 42 10 99 9 99 100 100 100 100 100 100 100 100 90 54 100 100 100 100 100 100 100 100 100 100 100 90 100 100 14
100 2 3 0 5 4 0 1 0 0 0 0 24 26 45 6 51 39 99 44 100 100 100 100 100 100 100 89 100 100 21 90 100 100 100 100 100 100 100 100 100 98 79 53 31
4 1 4 2 4 0 0 0 0 0 0 42 52 63 6 46 37 99 71 100 100 100 100 100 100 93 100 100 82 57 10 5 10 90 100 100 100 100 100 100 100 100 72 24 5
4 0 2 0 5 0 4 0 2 2 98 96 80 85 4 100 97 100 80 78 99 100 100 100 100 98 77 100 100 100 100 100 94 52 70 100 100 100 100 100 100 100 99 65 86
5 2 1 5 0 0 1 54 79 96 74 2 52 98 93 35 100 83 58 100 56 52 100 100 98 71 100 100 100 100 100 98 100 96 45 11 99 100 100 100 59 90 26 18 100
1 3 1 1 0 1 30 67 98 100 100 8 3 3 98 100 7 96 71 100 31 44 47 100 79 100 100 100 100 100 100 100 100 95 38 26 1 30 67 100 100 100 100 52 96
0 3 0 0 3 46 8 86 98 100 96 2 2 6 0 64 47 85 100 61 99 100 100 61 99 100 100 100 100 100 100 100 100 92 91 6 0 0 0 0 1 21 96 100 100
5 0 0 0 9 74 29 34 70 80 60 0 76 98 25 2 44 14 71 99 94 7 100 9 92 100 100 100 100 100 100 100 100 100 96 66 9 5 0 0 0 4 44 100 100
0 0 0 0 5 49 11 5 57 99 53 3 96 100 100 12 9 100 98 100 100 100 66 100 100 100 100 100 100 100 100 100 100 100 100 29 44 78 0 0 2 99 98 99 100
0 0 0 9 76 13 5 83 74 85 13 100 93 100 100 99 55 63 100 100 100 100 97 100 100 100 100 100 100 100 100 100 100 99 100 100 38 96 2 3 0 66 100 96 100
0 0 6 100 85 6 95 93 94 8 76 100 100 100 100 100 100 65 60 100 100 100 100 100 100 100 100 99 100 100 100 96 35 53 40 100 100 91 99 62 10 38 100 100 95
0 8 98 100 9 80 96 100 5 99 100 100 100 100 100 100 100 100 100 100 100 100 100 100 80 100 100 100 100 100 100 100 100 12 9 60 100 100 100 100 100 93 100 99 100
0 45 66 5 5 87 100 62 36 100 99 100 98 100 100 100 100 100 100 89 100 100 100 100 100 93 100 100 100 64 100 100 73 61 18 85 100 100 100 100 100 24 98 36 70
5 51 21 0 9 94 78 24 82 48 94 100 100 98 100 100 100 100 100 100 100 100 100 100 100 100 100 100 100 99 100 100 100 71 61 80 100 100 100 100 100 100 10 68 5
58 64 32 4 17 56 57 100 78 6 99 98 100 100 100 100 100 100 100 100 100 100 100 100 100 100 99 100 100 100 100 100 100 100 6 92 92 100 100 100 100 99 5 45 7
72 95 9 5 83 5 8 38 23 51 100 98 99 96 100 98 100 100 100 100 100 100 100 100 100 100 100 100 99 100 100 73 100 100 100 100 100 100 100 100 100 100 90 25 5
100 95 47 73 79 68 92 100 30 71 100 48 100 100 77 100 100 100 100 100 100 100 100 100 96 96 78 72 100 100 100 60 84 99 100 100 100 100 100 100 100 100 100 78 5
35 100 75 92 73 91 93 78 91 84 43 97 97 99 100 97 63 98 100 100 100 100 100 100 84 97 100 98 100 100 100 100 43 57 33 100 100 100 77 100 100 100 100 100 50
51 99 74 93 100 92 88 74 81 89 87 77 100 100 100 76 100 100 100 100 99 100 100 100 100 100 54 99 100 100 100 100 100 85 6 94 95 100 100 100 100 100 100 51 6
79 89 99 65 83 92 62 83 68 86 100 79 85 96 100 100 100 100 100 100 98 100 100 100 100 100 92 55 100 97 56 100 100 100 51 6 97 100 100 100 100 100 100 100 26